Lexington Weather

Lexington, Massachusetts, USA

70°F
8/17/2022 7:16pm 
  • Lexington Conditions: Overcast
  • Temperature: 69.6°F / 20.9°CColder 0.6°F than last hour.
  • Dew Point: 57.4°FDecreased 1.2°Fsince last hour.
  • Relative Humidity: 65%Decreased 2.0% since last hour.
  • Wind: Calm, 10-min avg: Calm, gust: None
  • Barometer: 29.84 in Steady
  • Visibility: 10 miles
  • Rain Today: 0.00 in
  •   

Regional Weather Roundup
for Boston, MA

        
000
ASUS41 KBOX 150310
RWRBOX

REGIONAL WEATHER ROUNDUP
NATIONAL WEATHER SERVICE BOSTON/NORTON MA
1100 PM EDT SUN AUG 14 2022

NOTE:  "FAIR" INDICATES FEW OR NO CLOUDS BELOW 12,000 FEET WITH NO 
SIGNIFICANT WEATHER AND/OR OBSTRUCTIONS TO VISIBILITY.

MAZALL-150400-
EASTERN MASSACHUSETTS
  
CITY           SKY/WX    TMP DP  RH WIND       PRES   REMARKS
BOSTON         MOCLDY    72  55  55 SW12      30.03F                  
BEVERLY        PTCLDY    66  58  75 CALM      30.02F                  
LAWRENCE       PTCLDY    70  55  59 CALM      30.05S                  
BEDFORD        PTCLDY    69  54  58 CALM      30.03R                  
BLUE HILL      NOT AVBL                                               
NORWOOD        PTCLDY    65  55  70 CALM      30.04S                  
MARSHFIELD     MOCLDY    64  59  82 CALM      30.04R                  
PLYMOUTH       MOCLDY    67  58  72 CALM      30.05S                  
TAUNTON          N/A    N/A N/A N/A MISG      30.04S                  
NEW BEDFORD    PTCLDY    66  60  81 SW3       30.04S                  
$$

MAZALL-150400-
CAPE COD AND THE ISLANDS
  
CITY           SKY/WX    TMP DP  RH WIND       PRES   REMARKS
FALMOUTH       CLEAR     64  59  82 SW3       30.05S                  
HYANNIS        MOCLDY    63  57  81 CALM      30.04S                  
CHATHAM        MOCLDY    68  63  84 VRB3      30.06S                  
NANTUCKET      MOCLDY    69  64  84 S6        30.05S                  
MARTHAS VNYRD  MOCLDY    60  57  89 CALM      30.05S                  
$$
 
MAZALL-150400-
CENTRAL AND WESTERN MASSACHUSETTS
  
CITY           SKY/WX    TMP DP  RH WIND       PRES   REMARKS
WORCESTER      CLEAR     64  52  64 W8        30.07S                  
FITCHBURG      CLEAR     60  50  69 NW3       30.05S                  
ORANGE         CLEAR     60  54  80 CALM      30.06R                  
SPRINGFIELD    PTCLDY    60  55  82 CALM      30.02R                  
WESTFIELD      NOT AVBL                                               
NORTH ADAMS    CLEAR     56  53  90 CALM      30.05                   
PITTSFIELD     PTCLDY    60  52  74 CALM      30.05S                  
$$
 
RIZALL-150400-
RHODE ISLAND
  
CITY           SKY/WX    TMP DP  RH WIND       PRES   REMARKS
PROVIDENCE     MOCLDY    66  59  78 S7        30.05F                  
NEWPORT        MOCLDY    67  60  78 S3        30.05S                  
BLOCK ISLAND   MOCLDY    68  57  68 SW6       30.06S                  
SMITHFIELD     PTCLDY    64  57  78 CALM      30.06S                  
WESTERLY       MOCLDY    66  59  78 CALM      30.05S                  
$$
 
CTZALL-150400-
CONNECTICUT
  
CITY           SKY/WX    TMP DP  RH WIND       PRES   REMARKS
BRADLEY INTL   PTCLDY    69  52  54 S5        30.04R                  
HARTFORD       CLEAR     68  55  63 CALM      30.03S                  
BRIDGEPORT     CLEAR     72  58  61 SW8       30.04S                  
DANBURY        CLEAR     68  53  58 CALM      30.05S                  
GROTON         PTCLDY    68  61  78 SE3       30.04S                  
NEW HAVEN      CLEAR     74  57  55 S3        30.04S                  
CHESTER        FAIR      66  55  68 CALM      30.05S                  
MERIDEN        CLEAR     61  54  77 CALM      30.04S                  
WILLIMANTIC    CLEAR     63  55  75 CALM      30.05S                  
OXFORD         CLEAR     64  55  72 S3        30.07R                  
$$

MEZ002-015-021-024-NHZ003-005-008-011-012-014-VTZ005-008-150400-
NORTHERN NEW ENGLAND
  
CITY           SKY/WX    TMP DP  RH WIND       PRES   REMARKS
PORTLAND ME    PTCLDY    67  53  61 SW3       30.04R                  
BANGOR ME      PTCLDY    66  58  75 CALM      30.02S                  
CONCORD NH     CLEAR     61  52  72 CALM      30.04S                  
MANCHESTER NH  MOCLDY    69  53  56 CALM      30.02S                  
NASHUA NH      CLEAR     63  57  81 W3        30.04S                  
PORTSMOUTH NH  MOCLDY    64  51  62 CALM      30.03S                  
JAFFREY NH     CLEAR     57  50  77 CALM      30.07S                  
KEENE NH       CLEAR     56  55  97 CALM        N/A                   
BURLINGTON VT  CLEAR     62  55  77 E3        30.04F                  
MT. WASHINGTON MOCLDY    46  43  87 S5          N/A                   
$$

NYZ052-076-150400-
EASTERN NEW YORK
  
CITY           SKY/WX    TMP DP  RH WIND       PRES   REMARKS
ALBANY         PTCLDY    65  53  65 NW3       30.02S                  
NEW YORK CITY  PTCLDY    74  52  46 S10       30.02F                  
$$
 
ANZALL-150400-
MARINE OBSERVATIONS
  
STATION/POSITION TIME  TEMP    WIND        PRES    VSBY  WAVE
                       AIR SEA DIR/SP/G                  HT/PER
                 (UTC) (F)     (DEG/KT/KT) (MB)    (MI)  (FT/S)
BOSTON BUOY      NOT AVBL
BUZZARDS BAY     NOT AVBL
NANTUCKET SOUND  NOT AVBL
MASS BAY-STELLWA NOT AVBL
ISLE OF SHOALS   NOT AVBL
S OF BLOCK IS    NOT AVBL
$$

......................KEY.........................
  SKY/WX - SKY CONDITION/PRESENT WEATHER
  TMP    - TEMPERATURE IN FAHRENHEIT
  DWPT   - DEWPOINT IN FAHRENHEIT
  RH     - RELATIVE HUMIDITY IN PERCENT
  WIND   - DIRECTION AND SPEED IN MPH
  PRES   - MEAN SEA LEVEL PRESSURE IN INCHES OF HG
  WCI    - WIND CHILL INDEX
  VSB    - VISIBILITY IN MILES
  HX     - HEAT INDEX
  TC     - TEMPERATURE IN CELSIUS
  VRB    - VARIABLE WIND DIRECTION
  N/A    - NOT AVAILABLE
  
      

Other recent Regional Weather Roundups

Wed Aug 17, 7:10pm

Wed Aug 17, 6:10pm

Wed Aug 17, 5:10pm

Wed Aug 17, 4:10pm

Wed Aug 17, 3:10pm

Wed Aug 17, 2:10pm

Wed Aug 17, 1:10pm

Wed Aug 17, 12:10pm

Wed Aug 17, 11:10am

Wed Aug 17, 10:10am

Wed Aug 17, 9:10am

Wed Aug 17, 8:10am

Wed Aug 17, 7:10am

Wed Aug 17, 6:10am

Wed Aug 17, 5:10am

Wed Aug 17, 4:10am

Wed Aug 17, 3:10am

Wed Aug 17, 2:10am

Wed Aug 17, 1:10am

Wed Aug 17, 12:10am

Tue Aug 16, 11:10pm

Tue Aug 16, 10:10pm

Tue Aug 16, 9:10pm

Tue Aug 16, 8:10pm

Tue Aug 16, 7:10pm

Tue Aug 16, 6:10pm

Tue Aug 16, 5:10pm

Tue Aug 16, 4:10pm

Tue Aug 16, 3:10pm

Tue Aug 16, 2:10pm

Tue Aug 16, 1:10pm

Tue Aug 16, 12:10pm

Tue Aug 16, 11:10am

Tue Aug 16, 10:10am

Tue Aug 16, 9:10am

Tue Aug 16, 8:10am

Tue Aug 16, 7:10am

Tue Aug 16, 6:10am

Tue Aug 16, 5:10am

Tue Aug 16, 4:10am

Tue Aug 16, 3:10am

Tue Aug 16, 2:10am

Tue Aug 16, 1:10am

Tue Aug 16, 12:10am

Mon Aug 15, 11:10pm

Mon Aug 15, 10:10pm

Mon Aug 15, 9:10pm

Mon Aug 15, 8:10pm

Mon Aug 15, 7:10pm

Mon Aug 15, 6:10pm

Mon Aug 15, 5:10pm

Mon Aug 15, 4:10pm

Mon Aug 15, 3:10pm

Mon Aug 15, 2:10pm

Mon Aug 15, 1:10pm

Mon Aug 15, 12:10pm

Mon Aug 15, 11:10am

Mon Aug 15, 10:10am

Mon Aug 15, 9:10am

Mon Aug 15, 8:10am

Mon Aug 15, 7:10am

Mon Aug 15, 6:10am

Mon Aug 15, 5:10am

Mon Aug 15, 4:10am

Mon Aug 15, 3:10am

Mon Aug 15, 2:10am

Mon Aug 15, 1:10am

Mon Aug 15, 12:10am

Sun Aug 14, 10:10pm

Sun Aug 14, 9:10pm

Sun Aug 14, 8:10pm

Sun Aug 14, 7:10pm

Sun Aug 14, 6:10pm

Sun Aug 14, 5:10pm

Sun Aug 14, 4:10pm

Sun Aug 14, 3:10pm

Sun Aug 14, 2:10pm

Sun Aug 14, 1:10pm

Sun Aug 14, 12:10pm

Sun Aug 14, 11:10am

Sun Aug 14, 10:10am

Sun Aug 14, 9:10am

Sun Aug 14, 8:10am

Sun Aug 14, 7:10am

Sun Aug 14, 6:10am

Sun Aug 14, 5:10am

Sun Aug 14, 4:10am

Sun Aug 14, 3:10am

Sun Aug 14, 2:10am

Sun Aug 14, 1:10am

Sun Aug 14, 12:10am

Sat Aug 13, 11:10pm

Sat Aug 13, 10:10pm

Sat Aug 13, 9:10pm

Sat Aug 13, 8:10pm

Sat Aug 13, 7:10pm

Sat Aug 13, 6:10pm

Sat Aug 13, 5:10pm

Sat Aug 13, 4:10pm

Sat Aug 13, 3:10pm

Sat Aug 13, 2:10pm

Sat Aug 13, 1:10pm

Sat Aug 13, 12:10pm

Sat Aug 13, 11:10am

Sat Aug 13, 10:10am

Sat Aug 13, 9:10am

Sat Aug 13, 8:10am

Sat Aug 13, 7:10am

Sat Aug 13, 6:10am

Sat Aug 13, 5:10am

Sat Aug 13, 4:10am

Sat Aug 13, 3:10am

Sat Aug 13, 2:10am

Sat Aug 13, 1:10am

Sat Aug 13, 12:10am

Fri Aug 12, 11:10pm

Fri Aug 12, 10:10pm

Fri Aug 12, 9:10pm

Fri Aug 12, 8:10pm

Fri Aug 12, 7:10pm

Fri Aug 12, 6:10pm

Fri Aug 12, 5:10pm

Fri Aug 12, 4:10pm

Fri Aug 12, 3:10pm

Fri Aug 12, 2:10pm

Fri Aug 12, 1:10pm

Fri Aug 12, 12:10pm

Fri Aug 12, 11:10am

Fri Aug 12, 10:10am

Fri Aug 12, 9:10am

Fri Aug 12, 8:10am

Fri Aug 12, 7:10am

Fri Aug 12, 6:10am

Fri Aug 12, 5:10am

Fri Aug 12, 4:10am

Fri Aug 12, 3:10am

Fri Aug 12, 2:10am

Fri Aug 12, 1:10am

Fri Aug 12, 12:10am

Thu Aug 11, 11:10pm

Thu Aug 11, 10:10pm

Thu Aug 11, 9:10pm

Thu Aug 11, 8:10pm

Thu Aug 11, 7:10pm

Thu Aug 11, 6:10pm

Thu Aug 11, 5:10pm

Thu Aug 11, 4:10pm

Thu Aug 11, 3:10pm

Thu Aug 11, 2:10pm

Thu Aug 11, 1:10pm

Thu Aug 11, 12:10pm

Thu Aug 11, 11:10am

Thu Aug 11, 10:10am

Thu Aug 11, 9:10am

Thu Aug 11, 8:10am

Thu Aug 11, 7:10am

Thu Aug 11, 6:10am

Thu Aug 11, 5:10am

Thu Aug 11, 4:10am

Thu Aug 11, 3:10am

Thu Aug 11, 2:10am

Thu Aug 11, 1:10am

Thu Aug 11, 12:10am

Wed Aug 10, 11:10pm

Wed Aug 10, 10:10pm

Wed Aug 10, 9:10pm

Wed Aug 10, 8:10pm

Meta data:

ID: df68e5ab-9914-4b68-9ba9-c41a55a307db
Link: https://api.weather.gov/products/df68e5ab-9914-4b68-9ba9-c41a55a307db